Airfield :
LOGIN :

Register | Disclaimer

   EN    FR    IT 

 










Legend :    VFR   Marginal VFR   IFR   Intensive IFR   Very Intensive IFR
Visi :
Ceiling :
>= 8 km
>= 3000ft
5 to 8 km
1000 to 3000 ft
1500m to 5 km
500 to 1000 ft
800 to 1500m
200 to 500 ft
< 800m
< 200 ft
Symbols :   Thunderstorms  Fog  Heavy snow  Heavy precipitations  Wind > 20 kt
SIGMETs :     Misc.  Thunderstorms  Icing  Turbulence  Mountain Waves  Volcanic Ashes






- Airport Elevation : 26 ft


ETNT - Wittmundhaven AB

CURRENT METAR :
  • 251720Z 34011KT 9999 BKN017 11/07 Q1034 WHT BLU TEMPO WHT

EXPIRED METARs :
  • 251620Z 34011KT 9999 BKN017 12/07 Q1034 WHT BLU TEMPO WHT
  • 251520Z 33013KT 9999 BKN021 12/07 Q1033 WHT BLU TEMPO WHT

TAF TAF ETNT
Valid from the 25 at 17:00 until the 26 at 02:00 UTC


251605Z 2517/2602 33010G20KT 9999 NSW SCT020 BKN030
BECMG 2520/2522 34005KT 9999 NSW SCT030
PROB30 2600/2602 VRB03KT 3000 MIFG SKC BY ETGL



MET'MAP, your aeronautical weather chart ! - Copyright ORBIFLY December 2007 - Disclaimer

ORBIFLY MET'MAP TEAM :

Programming & Development : Alexandra Zaïnal
Concept & original design : Baudouin d'Aumeries
Assistance for programming : Marc-Olivier Méhu
Technical & hardware support : Manuel Goepfert

Contact : metmap@orbifly.com




SOURCES & CREDITS :

   NOAA